SWA120A KLAX-KSFO

Flight info

Callsign SWA120A
Flight time 0h 54m
Altitude 34000
Route SUMMR2 STOKD SERFR SERFR4
Aircraft B38M/M-SDE2E3FGHIRWXY/LB1

Departure

Time 2026-04-24 19:01
Airport Los Angeles International Airport (KLAX)

Arrival

Time 2026-04-24 19:55
Airport San Francisco International Airport (KSFO)
Time Latitude Longitude Altitude Speed Heading
2026-04-24 18:54 33.94837 -118.40136 92 ft 0 kts 83°
2026-04-24 18:58 33.94839 -118.40120 92 ft 4 kts 83°
2026-04-24 18:58 33.94858 -118.40086 92 ft 7 kts 26°
2026-04-24 18:58 33.94908 -118.40065 94 ft 9 kts 49°
2026-04-24 18:58 33.94926 -118.39986 92 ft 10 kts 81°
2026-04-24 18:59 33.94937 -118.39946 92 ft 4 kts 60°
2026-04-24 18:59 33.94944 -118.39934 94 ft 1 kts 51°
2026-04-24 18:59 33.94950 -118.39928 92 ft 1 kts 41°
2026-04-24 18:59 33.94958 -118.39922 92 ft 2 kts 28°
2026-04-24 19:00 33.94986 -118.39914 94 ft 6 kts
2026-04-24 19:00 33.95031 -118.39922 93 ft 7 kts 325°
2026-04-24 19:00 33.95038 -118.39978 95 ft 8 kts 265°
2026-04-24 19:00 33.95019 -118.40178 98 ft 54 kts 263°
2026-04-24 19:01 33.94942 -118.40915 96 ft 120 kts 263°
2026-04-24 19:01 33.94808 -118.42116 219 ft 159 kts 261°
2026-04-24 19:01 33.94669 -118.43399 970 ft 150 kts 261°
2026-04-24 19:01 33.94540 -118.44713 1452 ft 169 kts 261°
2026-04-24 19:02 33.94445 -118.45701 1627 ft 190 kts 262°
2026-04-24 19:02 33.94290 -118.48019 1961 ft 224 kts 266°
2026-04-24 19:02 33.94233 -118.49979 2190 ft 245 kts 267°
2026-04-24 19:02 33.94143 -118.52078 2674 ft 257 kts 264°
2026-04-24 19:03 33.93977 -118.54239 3461 ft 259 kts 264°
2026-04-24 19:03 33.93800 -118.56409 4284 ft 261 kts 264°
2026-04-24 19:03 33.93624 -118.58606 5070 ft 264 kts 264°
2026-04-24 19:03 33.93448 -118.60822 5838 ft 268 kts 264°
2026-04-24 19:04 33.93270 -118.63065 6629 ft 271 kts 264°
2026-04-24 19:04 33.93094 -118.65308 7418 ft 274 kts 264°
2026-04-24 19:04 33.92916 -118.67604 8197 ft 277 kts 264°
2026-04-24 19:04 33.92735 -118.69939 8957 ft 282 kts 264°
2026-04-24 19:05 33.92552 -118.72297 9830 ft 283 kts 264°
2026-04-24 19:05 33.92367 -118.74680 10528 ft 293 kts 264°
2026-04-24 19:05 33.92168 -118.77231 10742 ft 318 kts 264°
2026-04-24 19:05 33.91955 -118.79946 11215 ft 331 kts 264°
2026-04-24 19:06 33.91740 -118.82697 11804 ft 328 kts 264°
2026-04-24 19:06 33.91654 -118.85460 12211 ft 334 kts 270°
2026-04-24 19:06 33.91762 -118.88267 13021 ft 336 kts 272°
2026-04-24 19:06 33.91894 -118.91077 13906 ft 336 kts 271°
2026-04-24 19:07 33.92004 -118.93883 14845 ft 332 kts 270°
2026-04-24 19:07 33.92092 -118.96530 16545 ft 297 kts 270°
2026-04-24 19:07 33.92142 -118.98146 17547 ft 288 kts 270°
2026-04-24 19:07 33.92362 -119.01368 18390 ft 304 kts 281°
2026-04-24 19:08 33.93249 -119.03807 18548 ft 333 kts 295°
2026-04-24 19:08 33.94505 -119.06256 18779 ft 352 kts 297°
2026-04-24 19:08 33.95852 -119.08768 19279 ft 361 kts 297°
2026-04-24 19:08 33.97216 -119.11330 19965 ft 363 kts 297°
2026-04-24 19:09 33.98561 -119.13904 20728 ft 363 kts 296°
2026-04-24 19:09 33.99895 -119.16485 21432 ft 364 kts 296°
2026-04-24 19:09 34.01421 -119.18962 22023 ft 377 kts 308°
2026-04-24 19:09 34.03518 -119.20966 22580 ft 388 kts 317°
2026-04-24 19:10 34.05740 -119.22851 23143 ft 392 kts 317°
2026-04-24 19:10 34.07962 -119.24714 23697 ft 394 kts 317°
2026-04-24 19:10 34.10220 -119.26615 24263 ft 397 kts 316°
2026-04-24 19:10 34.12484 -119.28535 24803 ft 398 kts 316°
2026-04-24 19:11 34.14755 -119.30476 25297 ft 401 kts 316°
2026-04-24 19:11 34.17040 -119.32437 25787 ft 404 kts 316°
2026-04-24 19:11 34.19332 -119.34409 26289 ft 405 kts 316°
2026-04-24 19:11 34.21635 -119.36394 26725 ft 408 kts 316°
2026-04-24 19:12 34.23955 -119.38397 27145 ft 411 kts 316°
2026-04-24 19:12 34.26285 -119.40411 27615 ft 412 kts 316°
2026-04-24 19:12 34.28626 -119.42435 28026 ft 414 kts 316°
2026-04-24 19:12 34.30944 -119.44440 28475 ft 415 kts 316°
2026-04-24 19:13 34.32528 -119.45810 28851 ft 414 kts 316°
2026-04-24 19:13 34.35614 -119.48479 29646 ft 409 kts 316°
2026-04-24 19:13 34.37923 -119.50479 30203 ft 407 kts 315°
2026-04-24 19:13 34.40225 -119.52476 30689 ft 407 kts 315°
2026-04-24 19:14 34.42418 -119.54594 31116 ft 399 kts 308°
2026-04-24 19:14 34.44391 -119.56941 31575 ft 396 kts 306°
2026-04-24 19:14 34.46293 -119.59331 32146 ft 392 kts 305°
2026-04-24 19:14 34.48167 -119.61722 32600 ft 391 kts 305°
2026-04-24 19:15 34.50051 -119.64122 32911 ft 393 kts 305°
2026-04-24 19:15 34.51944 -119.66492 33382 ft 391 kts 305°
2026-04-24 19:15 34.53841 -119.68857 33850 ft 388 kts 305°
2026-04-24 19:15 34.55692 -119.71168 33976 ft 387 kts 306°
2026-04-24 19:16 34.59541 -119.75823 34021 ft 392 kts 306°
2026-04-24 19:16 34.63328 -119.80530 34016 ft 387 kts 305°
2026-04-24 19:17 34.67065 -119.85215 34021 ft 385 kts 305°
2026-04-24 19:17 34.70903 -119.89809 34035 ft 387 kts 305°
2026-04-24 19:18 34.74611 -119.94566 33964 ft 385 kts 303°
2026-04-24 19:18 34.78359 -119.99194 34001 ft 388 kts 306°
2026-04-24 19:19 34.82126 -120.03890 34015 ft 388 kts 306°
2026-04-24 19:19 34.85952 -120.08594 34023 ft 391 kts 306°
2026-04-24 19:20 34.89705 -120.13394 34008 ft 389 kts 304°
2026-04-24 19:20 34.93463 -120.18193 34027 ft 392 kts 306°
2026-04-24 19:21 34.97310 -120.22931 34031 ft 394 kts 306°
2026-04-24 19:21 35.01145 -120.27683 34098 ft 397 kts 308°
2026-04-24 19:22 35.02483 -120.29226 33960 ft 399 kts 306°
2026-04-24 19:22 35.05017 -120.32490 34019 ft 396 kts 305°
2026-04-24 19:22 35.08818 -120.37351 34025 ft 395 kts 307°
2026-04-24 19:23 35.12834 -120.41964 34037 ft 396 kts 309°
2026-04-24 19:23 35.16931 -120.46473 34020 ft 395 kts 310°
2026-04-24 19:24 35.21000 -120.50913 34035 ft 392 kts 309°
2026-04-24 19:24 35.25007 -120.55452 34050 ft 392 kts 309°
2026-04-24 19:25 35.29014 -120.59998 34015 ft 394 kts 309°
2026-04-24 19:25 35.33058 -120.64565 34021 ft 396 kts 309°
2026-04-24 19:26 35.37120 -120.69147 34025 ft 398 kts 309°
2026-04-24 19:26 35.41172 -120.73724 34030 ft 399 kts 309°
2026-04-24 19:27 35.45166 -120.78379 33970 ft 396 kts 309°
2026-04-24 19:27 35.49282 -120.82848 34032 ft 398 kts 313°
2026-04-24 19:28 35.52957 -120.86309 34028 ft 402 kts 315°
2026-04-24 19:28 35.57477 -120.90390 34027 ft 403 kts 315°
2026-04-24 19:29 35.64188 -120.96557 34048 ft 400 kts 314°
2026-04-24 19:30 35.68631 -121.00688 34048 ft 401 kts 315°
2026-04-24 19:30 35.73081 -121.04843 34049 ft 402 kts 315°
2026-04-24 19:31 35.77545 -121.09013 34049 ft 403 kts 315°
2026-04-24 19:31 35.82001 -121.13203 34046 ft 403 kts 315°
2026-04-24 19:32 35.86451 -121.17363 34035 ft 405 kts 315°
2026-04-24 19:32 35.90937 -121.21561 34030 ft 405 kts 315°
2026-04-24 19:33 35.95423 -121.25775 34019 ft 405 kts 315°
2026-04-24 19:33 35.97678 -121.27900 33562 ft 408 kts 315°
2026-04-24 19:33 35.99925 -121.30014 33020 ft 405 kts 315°
2026-04-24 19:33 36.02168 -121.32127 32451 ft 405 kts 315°
2026-04-24 19:34 36.04413 -121.34246 31821 ft 406 kts 316°
2026-04-24 19:34 36.06665 -121.36365 31205 ft 407 kts 317°
2026-04-24 19:34 36.09000 -121.38366 30577 ft 410 kts 320°
2026-04-24 19:34 36.11416 -121.40255 29949 ft 412 kts 322°
2026-04-24 19:35 36.13864 -121.42114 29300 ft 413 kts 322°
2026-04-24 19:35 36.16299 -121.43963 28795 ft 409 kts 322°
2026-04-24 19:35 36.18706 -121.45800 28320 ft 404 kts 322°
2026-04-24 19:35 36.21085 -121.47625 27816 ft 401 kts 322°
2026-04-24 19:36 36.23443 -121.49455 27298 ft 398 kts 322°
2026-04-24 19:36 36.25781 -121.51277 26814 ft 395 kts 322°
2026-04-24 19:36 36.28068 -121.53070 26355 ft 392 kts 322°
2026-04-24 19:36 36.30392 -121.54892 25830 ft 389 kts 322°
2026-04-24 19:37 36.32657 -121.56666 25407 ft 392 kts 322°
2026-04-24 19:37 36.34974 -121.58488 24905 ft 396 kts 323°
2026-04-24 19:37 36.37292 -121.60303 24406 ft 392 kts 323°
2026-04-24 19:37 36.39591 -121.62102 23921 ft 389 kts 323°
2026-04-24 19:38 36.41875 -121.63893 23437 ft 386 kts 323°
2026-04-24 19:38 36.44135 -121.65668 22956 ft 383 kts 323°
2026-04-24 19:38 36.46376 -121.67431 22479 ft 380 kts 323°
2026-04-24 19:38 36.48598 -121.69178 22015 ft 377 kts 324°
2026-04-24 19:39 36.50808 -121.70919 21547 ft 375 kts 323°
2026-04-24 19:39 36.52999 -121.72646 21096 ft 371 kts 324°
2026-04-24 19:39 36.55173 -121.74365 20633 ft 369 kts 324°
2026-04-24 19:39 36.57332 -121.76072 20179 ft 366 kts 324°
2026-04-24 19:40 36.59470 -121.77766 19716 ft 364 kts 324°
2026-04-24 19:40 36.61601 -121.79455 19260 ft 362 kts 324°
2026-04-24 19:40 36.63723 -121.81138 18793 ft 360 kts 324°
2026-04-24 19:40 36.65831 -121.82810 18329 ft 358 kts 324°
2026-04-24 19:41 36.67900 -121.84451 17856 ft 357 kts 324°
2026-04-24 19:41 36.69992 -121.86113 17388 ft 356 kts 324°
2026-04-24 19:41 36.72078 -121.87770 16926 ft 355 kts 325°
2026-04-24 19:41 36.74192 -121.89362 16449 ft 355 kts 332°
2026-04-24 19:42 36.76568 -121.90226 16021 ft 356 kts 346°
2026-04-24 19:42 36.78994 -121.90850 15560 ft 354 kts 346°
2026-04-24 19:42 36.81399 -121.91482 15109 ft 352 kts 346°
2026-04-24 19:42 36.83787 -121.92127 14659 ft 351 kts 346°
2026-04-24 19:43 36.86170 -121.92779 14214 ft 349 kts 346°
2026-04-24 19:43 36.88535 -121.93434 13770 ft 347 kts 345°
2026-04-24 19:43 36.90882 -121.94089 13332 ft 345 kts 346°
2026-04-24 19:43 36.93216 -121.94742 12899 ft 342 kts 345°
2026-04-24 19:44 36.95529 -121.95404 12468 ft 340 kts 343°
2026-04-24 19:44 36.97793 -121.96212 12054 ft 337 kts 341°
2026-04-24 19:44 37.00021 -121.97094 11622 ft 335 kts 340°
2026-04-24 19:44 37.02237 -121.97991 11202 ft 333 kts 340°
2026-04-24 19:45 37.04407 -121.98864 10799 ft 331 kts 341°
2026-04-24 19:45 37.06589 -121.99728 10560 ft 323 kts 341°
2026-04-24 19:45 37.08707 -122.00563 10404 ft 315 kts 341°
2026-04-24 19:45 37.10773 -122.01375 10246 ft 307 kts 341°
2026-04-24 19:46 37.12780 -122.02164 10113 ft 298 kts 341°
2026-04-24 19:46 37.14730 -122.02929 9963 ft 291 kts 342°
2026-04-24 19:46 37.16654 -122.03683 9671 ft 289 kts 342°
2026-04-24 19:46 37.18575 -122.04437 9376 ft 288 kts 342°
2026-04-24 19:47 37.20481 -122.05184 9077 ft 287 kts 342°
2026-04-24 19:47 37.22383 -122.05930 8773 ft 285 kts 342°
2026-04-24 19:47 37.24270 -122.06670 8485 ft 283 kts 342°
2026-04-24 19:47 37.26148 -122.07407 8184 ft 282 kts 342°
2026-04-24 19:48 37.28018 -122.08140 7868 ft 282 kts 342°
2026-04-24 19:48 37.29896 -122.08879 7490 ft 282 kts 342°
2026-04-24 19:48 37.33544 -122.10317 6737 ft 271 kts 342°
2026-04-24 19:49 37.37142 -122.11737 6051 ft 273 kts 342°
2026-04-24 19:49 37.40752 -122.13017 5367 ft 263 kts 345°
2026-04-24 19:50 37.46062 -122.14816 4419 ft 263 kts 345°
2026-04-24 19:50 37.47827 -122.15420 4089 ft 261 kts 345°
2026-04-24 19:51 37.51258 -122.16597 3496 ft 249 kts 345°
2026-04-24 19:51 37.52874 -122.17237 3156 ft 240 kts 333°
2026-04-24 19:52 37.54691 -122.20447 2576 ft 220 kts 297°
2026-04-24 19:52 37.55413 -122.22093 2382 ft 206 kts 299°
2026-04-24 19:52 37.56086 -122.23635 2150 ft 197 kts 297°
2026-04-24 19:52 37.56708 -122.25121 1906 ft 188 kts 297°
2026-04-24 19:53 37.57308 -122.26559 1662 ft 182 kts 297°
2026-04-24 19:53 37.57871 -122.27911 1422 ft 167 kts 296°
2026-04-24 19:53 37.58849 -122.30257 1020 ft 136 kts 296°
2026-04-24 19:54 37.59283 -122.31296 850 ft 133 kts 296°
2026-04-24 19:54 37.59710 -122.32334 683 ft 135 kts 296°
2026-04-24 19:54 37.60155 -122.33386 499 ft 137 kts 297°
2026-04-24 19:54 37.60586 -122.34445 312 ft 135 kts 296°
2026-04-24 19:55 37.60872 -122.35145 204 ft 135 kts 296°
2026-04-24 19:55 37.61468 -122.36554 23 ft 134 kts 297°
2026-04-24 19:55 37.61835 -122.37425 21 ft 80 kts 298°
2026-04-24 19:55 37.61982 -122.37779 21 ft 16 kts 296°
2026-04-24 19:56 37.61984 -122.37907 21 ft 15 kts 235°
2026-04-24 19:56 37.61894 -122.37927 21 ft 14 kts 149°
2026-04-24 19:56 37.61823 -122.37845 21 ft 14 kts 114°
2026-04-24 19:56 37.61788 -122.37735 21 ft 13 kts 110°
2026-04-24 19:57 37.61756 -122.37629 21 ft 13 kts 112°
2026-04-24 19:57 37.61724 -122.37528 21 ft 12 kts 115°
2026-04-24 19:57 37.61678 -122.37439 21 ft 12 kts 152°
2026-04-24 19:57 37.61598 -122.37466 21 ft 14 kts 207°
2026-04-24 19:58 37.61488 -122.37541 21 ft 23 kts 210°
2026-04-24 19:58 37.61322 -122.37651 22 ft 30 kts 206°
2026-04-24 19:58 37.61139 -122.37766 22 ft 29 kts 210°
2026-04-24 19:58 37.60969 -122.37881 21 ft 27 kts 207°
2026-04-24 19:59 37.60825 -122.37978 21 ft 17 kts 222°
2026-04-24 19:59 37.60838 -122.38109 21 ft 16 kts 296°
2026-04-24 19:59 37.60873 -122.38239 21 ft 15 kts 274°
2026-04-24 19:59 37.60914 -122.38360 21 ft 15 kts 303°
2026-04-24 20:00 37.60991 -122.38418 21 ft 14 kts 22°
2026-04-24 20:00 37.61074 -122.38356 21 ft 14 kts 28°
2026-04-24 20:00 37.61157 -122.38304 23 ft 13 kts 29°
2026-04-24 20:00 37.61236 -122.38250 21 ft 13 kts 27°
2026-04-24 20:01 37.61313 -122.38199 21 ft 12 kts 28°
2026-04-24 20:01 37.61387 -122.38146 22 ft 12 kts 30°
2026-04-24 20:01 37.61461 -122.38106 21 ft 11 kts 24°
2026-04-24 20:01 37.61533 -122.38092 21 ft 11 kts 332°
2026-04-24 20:02 37.61548 -122.38111 21 ft 4 kts 310°
2026-04-24 20:02 37.61580 -122.38119 21 ft 4 kts 353°
2026-04-24 20:02 37.61608 -122.38127 21 ft 4 kts 357°
2026-04-24 20:02 37.61637 -122.38128 21 ft 4 kts 360°
2026-04-24 20:03 37.61653 -122.38127 23 ft 0 kts